Home   Weather   Spiez   Past weeks

Flag for Switzerland Past Weather in Spiez, Bern, Switzerland — Yesterday and Last 2 Weeks

Now
31 °F

Chilly.


Feels Like: 31 °F
Forecast: 30 / 47 °F
Wind: 2 mph from West

Location: Interlaken

Current Time: Dec 3, 2016 at 8:45:21 pm

Latest Report: Dec 3, 2016 at 8:00 pm


Visibility: N/A

Pressure: 30.25 "Hg (28.03 "Hg at 607m altitude)

Humidity: 83%

Dew Point: 26 °F

Location of SpiezLocation

Past Weather in Spiez — Graph

°F

Spiez Temperature Yesterday

Maximum temperature yesterday: 42 °F (at 2:00 pm)
Minimum temperature yesterday: 28 °F (at 7:00 am)
Average temperature yesterday: 33 °F

High & Low Weather Summary for the Past Weeks

 TemperatureHumidityPressure
High61 °F (Nov 24, 5:00 am)100% (Nov 18, 7:00 pm)30.66 "Hg (Nov 18, 7:00 pm)
Low26 °F (Dec 3, 7:00 am)41% (Nov 24, 5:00 am)29.60 "Hg (Nov 21, 7:00 pm)
Average41 °F82%30.06 "Hg
* Reported Nov 18 7:00 pm — Dec 3 7:00 pm, Spiez, Weather by CustomWeather, © 2016

Note: Actual official high and low records may vary slightly from our data, if they occured in-between our weather recording intervals... More about our weather records

Advertising

Spiez Weather History for the Previous 24 Hours

Scroll right to see more
 ConditionsComfort  
Time TempWeatherWind HumidityBarometerVisibility
7:00 pm
Sat, Dec 3
29 °FChilly.2 mph85%30.24 "HgN/A
6:00 pm29 °FChilly.1 mph88%30.23 "HgN/A
5:00 pm31 °FChilly.2 mph83%30.21 "HgN/A
4:00 pm32 °FChilly.5 mph81%30.19 "HgN/A
3:00 pm34 °FChilly.3 mph77%30.16 "HgN/A
2:00 pm35 °FChilly.3 mph76%30.14 "HgN/A
1:00 pm36 °FChilly.6 mph76%30.15 "HgN/A
12:00 pm36 °FChilly.2 mph76%30.16 "HgN/A
11:00 am33 °FChilly.3 mph81%30.18 "HgN/A
10:00 am30 °FChilly.2 mph85%30.18 "HgN/A
9:00 am29 °FChilly.2 mph86%30.17 "HgN/A
8:00 am26 °FChilly.3 mph88%30.17 "HgN/A
7:00 am26 °FChilly.2 mph90%30.16 "HgN/A
6:00 am26 °FChilly.1 mph90%30.17 "HgN/A
5:00 am27 °FChilly.2 mph90%30.17 "HgN/A
4:00 am28 °FChilly.1 mph87%30.16 "HgN/A
3:00 am28 °FChilly.1 mph87%30.16 "HgN/A
2:00 am28 °FChilly.1 mph89%30.16 "HgN/A
1:00 am28 °FChilly.1 mph89%30.16 "HgN/A
12:00 am29 °FChilly.5 mph86%30.16 "HgN/A
11:00 pm
Fri, Dec 2
29 °FChilly.2 mph86%30.17 "HgN/A
10:00 pm31 °FChilly.2 mph84%30.17 "HgN/A
9:00 pm30 °FChilly.2 mph85%30.17 "HgN/A
8:00 pm32 °FChilly.2 mph81%30.16 "HgN/A
Weather by CustomWeather, © 2016

See weather overviewHow to use our weather pages